Weather Roundup
Issued by NWS Springfield, MO

Home | Current Version | Previous Version | Text Only | Print | Product List | Glossary On
Versions: 1 2 3 4 5 6 7 8 9 10 11 12 13 14 15 16 17 18 19 20 21 22 23 24 25 26 27 28 29 30 31 32 33 34 35 36 37 38 39 40 41 42 43 44 45 46 47 48 49 50
000
NZUS99 KSGF 280359
HRRSGF

HOURLY WEATHER
NATIONAL WEATHER SERVICE SPRINGFIELD MO
1000 PM CST TUE JAN 27 2015

......SGF CWA......

CITY           SKY/WX    TMP DP  RH WIND       PRES   REMARKS
SPRINGFIELD    CLEAR     44  28  53 SE6       30.12R
JOPLIN         CLEAR     50  27  40 SE8       30.07F
WEST PLAINS    CLEAR     43  29  57 SE6       30.17R
ROLLA          CLEAR     36  29  75 E12       30.15S WCI  28
OSAGE BEACH    CLEAR     43  28  56 E5        30.15S

......SURROUNDING SGF CWA......

CITY           SKY/WX    TMP DP  RH WIND       PRES   REMARKS
CHANUTE        CLEAR     47  33  58 SE10      30.04S
PARSONS        CLEAR     49  33  54 E3        30.05F
COFFEYVILLE    CLEAR     40  32  73 E5        30.04S
EMPORIA        CLEAR     44  33  65 SE9       30.00S
SILOAM SPRINGS CLEAR     48  28  46 E6        30.10F
HARRISON AR    CLEAR     46  29  51 SE8       30.14R
NEAR YELLVILLE CLEAR     39  28  65 CALM      30.15R

......KANSAS AND MISSOURI......

CITY           SKY/WX    TMP DP  RH WIND       PRES   REMARKS
KANSAS CTY INT CLEAR     42  32  67 SE13      30.07F
DOWNTOWN KC    CLEAR     41  30  65 E6        30.08F
COLUMBIA       CLEAR     38  31  76 SE9       30.17R WCI  31
SEDALIA        CLEAR     38  30  73 E6        30.15F WCI  33
ST JOSEPH      CLEAR     41  31  67 SE10      30.08F
ST LOUIS       CLEAR     29  24  82 E6        30.25R WCI  23
SPIRIT OF STL  CLEAR     30  26  85 E5        30.24R WCI  25
KIRKSVILLE     CLEAR     30  28  92 SE8       30.18R FOG     WCI  22
WICHITA        CLEAR     52  35  52 S9        29.98S
TOPEKA         CLEAR     46  32  58 E10       30.04F
OLATHE         CLEAR     43  31  62 E9        30.06F

......TENNESSEE......

CITY           SKY/WX    TMP DP  RH WIND       PRES   REMARKS
MEMPHIS        CLEAR     43  32  65 E8        30.20S
NASHVILLE      CLOUDY    35  30  82 N9        30.23S WCI  28

......ARKANSAS.......

CITY           SKY/WX    TMP DP  RH WIND       PRES   REMARKS
FAYETTEVILLE   CLEAR     39  30  70 CALM      30.12S
FT SMITH       CLEAR     49  33  54 NE3       30.10S
LITTLE ROCK    CLEAR     47  36  65 E6        30.18S

......OKLAHOMA.......

CITY           SKY/WX    TMP DP  RH WIND       PRES   REMARKS
TULSA          PTCLDY    59  36  42 S10       30.03F
PONCA CITY     CLEAR     60  35  39 S6        30.01S
MCALESTER      PTCLDY    57  37  47 S6        30.09S
OKLAHOMA CITY  PTCLDY    54  37  52 SW8       30.06S

......IOWA............

CITY           SKY/WX    TMP DP  RH WIND       PRES   REMARKS
DES MOINES     CLEAR     32  27  81 SE10      30.14S WCI  24
QUAD CITIES    CLOUDY    27  22  81 SE8       30.23S WCI  19

......ILLINOIS........

CITY           SKY/WX    TMP DP  RH WIND       PRES   REMARKS
QUINCY         CLEAR     28  25  88 E8        30.21F FOG     WCI  20
CHICAGO        PTCLDY    22  17  81 CALM      30.25R




USA.gov is the U.S. government's official web portal to all federal, state and local government web resources and services.